| time (UTC) | temp C | wind direction | speed KPH | gust KPH | rain 1hr cm | rain 24hr cm | rain mn cm | humidity % | barometer mb |
| 20260508093603 | 15 | 70 | 4.8 | 14.5 | 0.00 | 0.00 | 0.00 | 58 | 1016.6 |
| 20260508090604 | 13 | 106 | 1.6 | 11.3 | 0.00 | 0.00 | 0.00 | 66 | 1016.4 |
| 20260508090104 | 13 | 151 | 4.8 | 11.3 | 0.00 | 0.00 | 0.00 | 64 | 1016.6 |
| 20260508083603 | 13 | 113 | 4.8 | 11.3 | 0.00 | 0.00 | 0.00 | 68 | 1016.6 |
| 20260508083104 | 13 | 171 | 3.2 | 9.7 | 0.00 | 0.00 | 0.00 | 71 | 1016.5 |
| 20260508080104 | 12 | 323 | 1.6 | 8.0 | 0.00 | 0.00 | 0.00 | 78 | 1016.4 |
| 20260508070604 | 10 | 146 | 1.6 | 8.0 | 0.00 | 0.00 | 0.00 | 92 | 1016.1 |
| 20260508070105 | 10 | 151 | 3.2 | 9.7 | 0.00 | 0.00 | 0.00 | 93 | 1016.1 |
| 20260508063603 | 9 | 87 | 1.6 | 4.8 | 0.00 | 0.00 | 0.00 | 100 | 1016.0 |
| 20260508063104 | 8 | 87 | 0.0 | 3.2 | 0.00 | 0.00 | 0.00 | 100 | 1015.9 |
| 20260508060104 | 7 | 86 | 0.0 | 0.0 | 0.00 | 0.00 | 0.00 | 100 | 1015.7 |
| 20260508053603 | 7 | 86 | 0.0 | 0.0 | 0.00 | 0.00 | 0.00 | 100 | 1015.7 |
| 20260508050104 | 7 | 87 | 0.0 | 0.0 | 0.00 | 0.00 | 0.00 | 100 | 1015.5 |
| 20260508043105 | 6 | 86 | 0.0 | 0.0 | 0.00 | 0.00 | 0.00 | 100 | 1015.4 |
| 20260508040103 | 6 | 87 | 0.0 | 0.0 | 0.00 | 0.00 | 0.00 | 100 | 1015.3 |
| 20260508033604 | 6 | 86 | 0.0 | 0.0 | 0.00 | 0.00 | 0.00 | 100 | 1015.3 |
| 20260508023104 | 6 | 86 | 0.0 | 0.0 | 0.00 | 0.00 | 0.00 | 100 | 1015.3 |
| 20260508020104 | 7 | 87 | 0.0 | 0.0 | 0.00 | 0.00 | 0.00 | 96 | 1015.2 |
| 20260508010603 | 8 | 86 | 0.0 | 0.0 | 0.00 | 0.00 | 0.00 | 99 | 1015.3 |
| 20260508003603 | 8 | 86 | 0.0 | 0.0 | 0.00 | 0.00 | 0.00 | 98 | 1015.3 |
| 20260507233103 | 8 | 86 | 1.6 | 3.2 | 0.00 | 0.00 | 0.00 | 96 | 1015.3 |
| 20260507230104 | 8 | 84 | 0.0 | 0.0 | 0.00 | 0.00 | 0.00 | 97 | 1015.4 |
| 20260507210604 | 9 | 84 | 0.0 | 0.0 | 0.00 | 0.00 | 0.00 | 93 | 1015.0 |
| 20260507210103 | 9 | 83 | 0.0 | 0.0 | 0.00 | 0.00 | 0.00 | 93 | 1014.8 |
| 20260507200604 | 10 | 83 | 1.6 | 3.2 | 0.00 | 0.00 | 0.00 | 92 | 1014.6 |
| 20260507200104 | 10 | 84 | 1.6 | 3.2 | 0.00 | 0.00 | 0.00 | 91 | 1014.6 |
| 20260507193603 | 10 | 84 | 0.0 | 0.0 | 0.00 | 0.00 | 0.00 | 90 | 1014.4 |
| 20260507193104 | 10 | 84 | 0.0 | 1.6 | 0.00 | 0.00 | 0.00 | 88 | 1014.4 |
| 20260507190105 | 10 | 237 | 0.0 | 8.0 | 0.00 | 0.00 | 0.00 | 85 | 1014.4 |
| 20260507183603 | 11 | 164 | 1.6 | 4.8 | 0.00 | 0.00 | 0.00 | 81 | 1014.3 |
| 20260507180603 | 11 | 142 | 1.6 | 4.8 | 0.00 | 0.00 | 0.00 | 78 | 1013.9 |
| 20260507173104 | 12 | 88 | 1.6 | 9.7 | 0.00 | 0.00 | 0.00 | 65 | 1013.9 |
| 20260507170603 | 13 | 78 | 3.2 | 8.0 | 0.00 | 0.00 | 0.00 | 67 | 1013.9 |
| 20260507163604 | 13 | 76 | 1.6 | 8.0 | 0.00 | 0.00 | 0.00 | 60 | 1013.9 |
| 20260507143603 | 15 | 25 | 4.8 | 11.3 | 0.00 | 0.00 | 0.00 | 50 | 1014.4 |
| 20260507140104 | 15 | 121 | 4.8 | 14.5 | 0.00 | 0.00 | 0.00 | 52 | 1014.8 |
| 20260507133103 | 15 | 23 | 1.6 | 12.9 | 0.00 | 0.00 | 0.00 | 53 | 1014.8 |
| 20260507130603 | 15 | 122 | 3.2 | 16.1 | 0.00 | 0.00 | 0.00 | 57 | 1014.8 |
| 20260507120104 | 14 | 185 | 4.8 | 19.3 | 0.00 | 0.00 | 0.00 | 61 | 1015.3 |
| 20260507113605 | 13 | 146 | 4.8 | 14.5 | 0.00 | 0.00 | 0.00 | 69 | 1015.3 |
| 20260507110603 | 12 | 123 | 6.4 | 14.5 | 0.00 | 0.00 | 0.00 | 69 | 1015.5 |
| 20260507103104 | 11 | 176 | 4.8 | 12.9 | 0.00 | 0.00 | 0.00 | 76 | 1015.7 |